When you browse on this site, cookies collect data to enhance your experience and personalize the content and advertising you see.
Visit our Privacy Policy to learn more. By continuing to use the site, you agree to this use of cookies and data.
EN

Hourly Weather Al Hudaydah

Today, 12 August, Wednesday

Time Temperature Precipitation Wind Pressure Humidity
00:00 +34°C° 0 mm 4 mps 750 mmHg 70%
01:00 +33°C° 0 mm 3 mps 749 mmHg 71%
02:00 +33°C° 0 mm 3 mps 749 mmHg 73%
03:00 +32°C° 0 mm 2 mps 748 mmHg 74%
04:00 +32°C° 0 mm 2 mps 748 mmHg 75%
05:00 +32°C° 0 mm 2 mps 749 mmHg 76%
06:00 +32°C° 0 mm 1 mps 749 mmHg 77%
07:00 +32°C° 0 mm 1 mps 749 mmHg 74%
08:00 +34°C° 0 mm 2 mps 749 mmHg 71%
09:00 +35°C° 0 mm 2 mps 749 mmHg 68%
10:00 +36°C° 0 mm 3 mps 749 mmHg 64%
11:00 +37°C° 0 mm 3 mps 749 mmHg 59%
12:00 +38°C° 0 mm 3 mps 749 mmHg 55%
13:00 +38°C° 0 mm 4 mps 748 mmHg 54%
14:00 +38°C° 0 mm 4 mps 748 mmHg 54%
15:00 +39°C° 0 mm 5 mps 747 mmHg 54%
16:00 +38°C° 0 mm 4 mps 747 mmHg 58%
17:00 +37°C° 0 mm 4 mps 748 mmHg 61%
18:00 +36°C° 0 mm 4 mps 748 mmHg 65%
19:00 +36°C° 0 mm 3 mps 748 mmHg 67%
20:00 +35°C° 0 mm 2 mps 749 mmHg 69%
21:00 +35°C° 0 mm 2 mps 749 mmHg 71%
22:00 +34°C° 0 mm 1 mps 749 mmHg 71%
23:00 +34°C° 0 mm 1 mps 749 mmHg 72%

Tomorrow, 13 August, Thursday

Time Temperature Precipitation Wind Pressure Humidity
00:00 +34°C° 0 mm 1 mps 749 mmHg 72%
01:00 +33°C° 0 mm 1 mps 749 mmHg 74%
02:00 +34°C° 0 mm 2 mps 749 mmHg 76%
03:00 +34°C° 0 mm 2 mps 748 mmHg 78%
04:00 +34°C° 0 mm 2 mps 748 mmHg 79%
05:00 +32°C° 0 mm 1 mps 748 mmHg 80%
06:00 +30°C° 0 mm 0 mps 749 mmHg 81%
07:00 +33°C° 0 mm 1 mps 749 mmHg 76%
08:00 +34°C° 0 mm 1 mps 749 mmHg 72%
09:00 +36°C° 0 mm 2 mps 749 mmHg 67%
10:00 +37°C° 0 mm 3 mps 749 mmHg 63%
11:00 +37°C° 0 mm 3 mps 749 mmHg 59%
12:00 +38°C° 0 mm 3 mps 749 mmHg 55%
13:00 +38°C° 0 mm 4 mps 748 mmHg 54%
14:00 +40°C° 0 mm 4 mps 748 mmHg 52%
15:00 +40°C° 0 mm 5 mps 748 mmHg 50%
16:00 +38°C° 0.2 mm 4 mps 748 mmHg 53%
17:00 +37°C° 0.2 mm 4 mps 748 mmHg 55%
18:00 +36°C° 0.2 mm 4 mps 748 mmHg 58%
19:00 +36°C° 0.1 mm 3 mps 749 mmHg 59%
20:00 +36°C° 0.1 mm 2 mps 749 mmHg 59%
21:00 +35°C° 0.1 mm 1 mps 750 mmHg 60%
22:00 +35°C° 0 mm 1 mps 749 mmHg 60%
23:00 +35°C° 0 mm 1 mps 749 mmHg 60%

Day after tomorrow, 14 August, Friday

Time Temperature Precipitation Wind Pressure Humidity
00:00 +33°C° 0 mm 0 mps 749 mmHg 60%
01:00 +35°C° 0 mm 1 mps 749 mmHg 62%
02:00 +34°C° 0 mm 1 mps 748 mmHg 63%
03:00 +34°C° 0 mm 1 mps 748 mmHg 64%
04:00 +34°C° 0 mm 1 mps 748 mmHg 65%
05:00 +34°C° 0 mm 1 mps 748 mmHg 66%
06:00 +35°C° 0 mm 2 mps 748 mmHg 67%
07:00 +35°C° 0 mm 2 mps 748 mmHg 62%
08:00 +36°C° 0 mm 2 mps 749 mmHg 57%
09:00 +37°C° 0 mm 3 mps 749 mmHg 52%
10:00 +38°C° 0 mm 4 mps 749 mmHg 46%
11:00 +41°C° 0 mm 5 mps 749 mmHg 40%
12:00 +42°C° 0 mm 6 mps 748 mmHg 35%
13:00 +42°C° 0 mm 6 mps 748 mmHg 36%
14:00 +41°C° 0 mm 7 mps 747 mmHg 38%
15:00 +41°C° 0 mm 7 mps 747 mmHg 39%
16:00 +40°C° 0 mm 7 mps 747 mmHg 41%
17:00 +39°C° 0 mm 8 mps 747 mmHg 42%
18:00 +39°C° 0 mm 8 mps 747 mmHg 44%
19:00 +38°C° 0.1 mm 6 mps 747 mmHg 45%
20:00 +37°C° 0.1 mm 5 mps 748 mmHg 47%
21:00 +37°C° 0.1 mm 4 mps 749 mmHg 48%
22:00 +37°C° 0 mm 3 mps 748 mmHg 49%
23:00 +36°C° 0 mm 2 mps 748 mmHg 50%

15 August, Saturday

Time Temperature Precipitation Wind Pressure Humidity
00:00 +35°C° 0 mm 1 mps 748 mmHg 52%
01:00 +35°C° 0 mm 1 mps 748 mmHg 53%
02:00 +35°C° 0 mm 1 mps 747 mmHg 55%
03:00 +34°C° 0 mm 1 mps 746 mmHg 57%
04:00 +35°C° 0 mm 2 mps 747 mmHg 60%
05:00 +34°C° 0 mm 3 mps 747 mmHg 64%
06:00 +34°C° 0 mm 3 mps 747 mmHg 67%
07:00 +35°C° 0 mm 3 mps 748 mmHg 63%
08:00 +36°C° 0 mm 3 mps 748 mmHg 59%
09:00 +37°C° 0 mm 3 mps 748 mmHg 54%
10:00 +38°C° 0 mm 3 mps 748 mmHg 49%
11:00 +39°C° 0 mm 3 mps 748 mmHg 44%
12:00 +40°C° 0 mm 3 mps 748 mmHg 38%
13:00 +42°C° 0 mm 5 mps 747 mmHg 37%
14:00 +42°C° 0 mm 6 mps 747 mmHg 35%
15:00 +43°C° 0 mm 7 mps 746 mmHg 33%
16:00 +41°C° 0.1 mm 6 mps 746 mmHg 35%
17:00 +41°C° 0.1 mm 6 mps 746 mmHg 37%
18:00 +40°C° 0.1 mm 6 mps 747 mmHg 39%
19:00 +39°C° 0.1 mm 5 mps 747 mmHg 42%
20:00 +38°C° 0.1 mm 4 mps 748 mmHg 45%
21:00 +37°C° 0.1 mm 3 mps 748 mmHg 48%
22:00 +37°C° 0 mm 3 mps 748 mmHg 50%
23:00 +36°C° 0 mm 3 mps 748 mmHg 51%

16 August, Sunday

Time Temperature Precipitation Wind Pressure Humidity
00:00 +36°C° 0 mm 3 mps 747 mmHg 53%
01:00 +36°C° 0 mm 3 mps 747 mmHg 56%
02:00 +35°C° 0 mm 4 mps 747 mmHg 58%
03:00 +35°C° 0 mm 4 mps 746 mmHg 61%
04:00 +35°C° 0 mm 3 mps 746 mmHg 61%
05:00 +35°C° 0 mm 3 mps 747 mmHg 62%
06:00 +35°C° 0 mm 3 mps 747 mmHg 62%
07:00 +36°C° 0 mm 3 mps 747 mmHg 56%
08:00 +37°C° 0 mm 3 mps 747 mmHg 50%
09:00 +39°C° 0 mm 3 mps 748 mmHg 44%
10:00 +39°C° 0 mm 3 mps 748 mmHg 41%
11:00 +41°C° 0 mm 4 mps 748 mmHg 38%
12:00 +42°C° 0 mm 4 mps 747 mmHg 35%
13:00 +42°C° 0 mm 5 mps 747 mmHg 34%
14:00 +42°C° 0 mm 5 mps 747 mmHg 33%
15:00 +42°C° 0 mm 6 mps 746 mmHg 32%
16:00 +42°C° 0 mm 6 mps 746 mmHg 35%
17:00 +41°C° 0 mm 7 mps 746 mmHg 37%
18:00 +40°C° 0 mm 7 mps 747 mmHg 40%
19:00 +39°C° 0 mm 6 mps 747 mmHg 42%
20:00 +39°C° 0 mm 5 mps 748 mmHg 44%
21:00 +37°C° 0 mm 5 mps 748 mmHg 47%
22:00 +37°C° 0 mm 4 mps 748 mmHg 47%
23:00 +37°C° 0 mm 4 mps 748 mmHg 48%

17 August, Monday

Time Temperature Precipitation Wind Pressure Humidity
00:00 +36°C° 0 mm 3 mps 748 mmHg 49%
01:00 +36°C° 0 mm 3 mps 747 mmHg 51%
02:00 +36°C° 0 mm 4 mps 747 mmHg 53%
03:00 +35°C° 0 mm 4 mps 747 mmHg 56%
04:00 +35°C° 0 mm 3 mps 747 mmHg 56%
05:00 +35°C° 0 mm 3 mps 747 mmHg 57%
06:00 +35°C° 0 mm 3 mps 747 mmHg 58%
07:00 +36°C° 0 mm 3 mps 748 mmHg 55%
08:00 +37°C° 0 mm 4 mps 748 mmHg 51%
09:00 +38°C° 0 mm 4 mps 748 mmHg 47%
10:00 +40°C° 0 mm 4 mps 748 mmHg 43%
11:00 +41°C° 0 mm 5 mps 748 mmHg 40%
12:00 +41°C° 0 mm 5 mps 748 mmHg 36%
13:00 +41°C° 0 mm 5 mps 747 mmHg 35%
14:00 +41°C° 0 mm 5 mps 747 mmHg 35%
15:00 +42°C° 0 mm 5 mps 746 mmHg 35%
16:00 +41°C° 0 mm 6 mps 747 mmHg 39%
17:00 +40°C° 0 mm 6 mps 747 mmHg 43%
18:00 +39°C° 0 mm 6 mps 747 mmHg 47%
19:00 +38°C° 0 mm 6 mps 747 mmHg 48%
20:00 +38°C° 0 mm 6 mps 748 mmHg 49%
21:00 +36°C° 0 mm 6 mps 748 mmHg 50%
22:00 +36°C° 0 mm 5 mps 748 mmHg 51%
23:00 +36°C° 0 mm 5 mps 748 mmHg 52%
Show more